Regional Weather Roundup
Issued by NWS

Home | Current Version | Previous Version | Text Only | Print | Product List | Glossary Off
Versions: 1 2 3 4 5 6 7 8 9 10 11 12 13 14 15 16 17 18 19 20 21 22 23 24 25 26 27

000
ASUS45 KBOU 310307
RWRCO

WEATHER ROUNDUP FOR COLORADO
NATIONAL WEATHER SERVICE DENVER/BOULDER CO
900 PM MDT SAT JUL 30 2016

NOTE: "FAIR" INDICATES FEW OR NO CLOUDS BELOW 12000 FEET WITH NO
SIGNIFICANT WEATHER AND/OR OBSTRUCTIONS TO VISIBILITY.

COZ001>005-013-030-031-310400-
...NORTHWEST COLORADO...

CITY           SKY/WX    TMP DP  RH WIND       PRES   REMARKS
CRAIG          FAIR      72  41  32 S6        30.09R
HAYDEN         FAIR      68  41  37 CALM      30.12R
MEEKER         MOCLDY    76  41  28 S7        30.11R
MOUNT WERNER   NOT AVBL
STEAMBOAT SPGS FAIR      72  39  29 N7        30.13F
WALDEN         MOCLDY    61  37  41 N6        30.25R
$$

COZ006>008-011-310400-
...WEST CENTRAL VALLEYS...

CITY           SKY/WX    TMP DP  RH WIND       PRES   REMARKS
GRAND JUNCTION FAIR      86  40  19 CALM      29.93R
MONTROSE       FAIR      79  40  24 SE10      30.05R
EAGLE          MOCLDY    81  39  22 SW9       30.11R
RIFLE          FAIR      81  40  23 S10       29.99R
DELTA          NOT AVBL
NUCLA          NOT AVBL
$$

COZ017>023-064>068-310400-
...SOUTHWEST COLORADO...

CITY           SKY/WX    TMP DP  RH WIND       PRES   REMARKS
DURANGO        FAIR      70  49  47 N8        30.16F
CORTEZ         FAIR      78  46  32 N7        30.06R
PAGOSA SPRINGS FAIR      74  35  23 S5        30.26F
TELLURIDE      FAIR      62  47  57 SE7       30.38R
WOLF CREEK PAS MOCLDY    52  34  50 SW8       30.61F
$$

COZ009-010-012-014-032>034-037-058>063-310400-
...CENTRAL COLORADO...

CITY           SKY/WX    TMP DP  RH WIND       PRES   REMARKS
ASPEN          FAIR      63  42  46 S7        30.20R
BUENA VISTA    MOCLDY    66  46  47 W3        30.26R
COPPER MTN     FAIR      59  27  29 E3        30.59R
BERTHOUD PASS  MOCLDY    48  34  57 E18       30.62S
COTTONWOOD PAS RAIN      63  36  36 S13G24    30.39S
GUNNISON       FAIR      70  39  32 SW5       30.24R
KREMMLING      MOCLDY    73  32  21 CALM      30.17R
LEADVILLE      CLOUDY    59  34  39 CALM      30.38R
MONARCH PASS   FAIR      54  32  43 MISG      30.67S
SALIDA         FAIR      68  42  39 E6        30.29R
SUNLIGHT       FAIR      59  34  38 MISG      30.49R
WILKERSON PASS FAIR      50  37  62 SE7       30.56R
$$

COZ069>075-310400-
...SAN LUIS VALLEY/SANGRE DE CRISTO MOUNTAINS...

CITY           SKY/WX    TMP DP  RH WIND       PRES   REMARKS
ALAMOSA          N/A     61  45  55 MISG      30.23F
LA VETA PASS   FAIR      48  43  81 S6        30.43F
SAGUACHE       FAIR      63  41  45 NE5       30.27R
$$

COZ035-036-038>040-310400-
...NORTHERN COLORADO FRONT RANGE...

CITY           SKY/WX    TMP DP  RH WIND       PRES   REMARKS
DENVER INTL AP MOCLDY    84  41  21 N6        30.01R
DMNS CITY PARK   N/A     80  47  30 S7        30.01R
AURORA         MOCLDY    79  45  29 S14       30.04R
FRONT RANGE AP MOCLDY    82  43  24 CALM      30.01R
ERIE MUNI ARPT FAIR      78  51  38 N7        29.99S
BOULDER MUN AP FAIR      77  55  47 NW5       30.01R
CENTENNIAL     MOCLDY    79  41  25 SW16      30.06R
BROOMFIELD     MOCLDY    81  46  30 N7        30.04R
LONGMONT       NOT AVBL
$$

COZ041-046-047-076>085-087-088-310400-
...PIKES PEAK/PALMER DIVIDE AND SOUTHERN FOOTHILLS...

CITY           SKY/WX    TMP DP  RH WIND       PRES   REMARKS
COLO. SPRINGS  MOCLDY    73  47  39 SW3       30.13R
A. F. ACADEMY  FAIR      72  44  36 NW14      30.16R
SCHRIEVER AFB  NOT AVBL
ELLICOTT       NOT AVBL
FALCON         NOT AVBL
FORT CARSON    NOT AVBL
LIMON          FAIR      73  48  41 SW7       30.04R
MONUMENT HILL  FAIR      68  45  42 SW9G18    30.18S
TRINIDAD       NOT AVBL
$$

COZ042>045-048>051-090-091-310400-
...NORTHEAST COLORADO...

CITY           SKY/WX    TMP DP  RH WIND       PRES   REMARKS
GREELEY ARPT   FAIR      79  61  53 SE14      29.97F
AKRON          FAIR      73  59  61 SE9       29.97R
BURLINGTON     FAIR      77  63  61 SE15      29.93S
WRAY           NOT AVBL
STERLING       NOT AVBL
HOLYOKE        NOT AVBL
FORT MORGAN    NOT AVBL
$$

COZ086-089-092>099-310400-
...SOUTHEAST COLORADO...

CITY           SKY/WX    TMP DP  RH WIND       PRES   REMARKS
PUEBLO         FAIR      77  52  41 SW16      29.99R
LA JUNTA       FAIR      79  51  37 N6        29.94R
LAMAR          FAIR      82  53  36 SW26G32   29.88R
SPRINGFIELD      N/A     75  51  43 W28G40    30.03R
$$




USA.gov is the U.S. government's official web portal to all federal, state and local government web resources and services.